Location: Newark
(48.5667°N, 12.8167°E)
Time: 14:03:26
(UTC+00:00)

XW-2B - Visible Passes

Search period start: 20 November 2019 00:00
Search period end: 30 November 2019 00:00
Orbit: 507 x 528 km, 97.5° (Epoch: 20 November)

Date Brightness Start Highest point End Pass type
(mag) Time Alt. Az. Time Alt. Az. Time Alt. Az.
20 Nov ? 05:09:18 10° NNE 05:13:06 69° ESE 05:16:53 10° S visible
20 Nov ? 15:53:19 10° SSE 15:56:56 54° ENE 16:00:37 10° N visible
20 Nov ? 17:29:33 10° WSW 17:31:25 13° W 17:33:17 10° WNW visible
21 Nov ? 04:55:16 10° NNE 04:58:57 47° E 05:02:38 10° S visible
21 Nov ? 17:14:29 10° SW 17:17:09 19° W 17:19:51 10° NW visible
22 Nov ? 04:41:19 10° NNE 04:44:47 32° E 04:48:15 10° SSE visible
22 Nov ? 16:59:47 10° SSW 17:02:56 26° W 17:06:08 10° NW visible
23 Nov ? 04:27:29 10° NE 04:30:36 23° E 04:33:41 10° SSE visible
23 Nov ? 16:45:16 10° SSW 16:48:44 37° W 16:52:15 10° NNW visible
24 Nov ? 04:13:50 10° NE 04:16:22 17° E 04:18:53 10° SE visible
24 Nov ? 05:47:03 10° N 05:50:41 44° WNW 05:54:20 10° SW visible
24 Nov ? 16:30:56 10° S 16:34:35 54° W 16:38:16 10° NNW visible
25 Nov ? 04:00:33 10° ENE 04:02:06 12° E 04:03:38 10° ESE visible
25 Nov ? 05:32:50 10° N 05:36:37 64° WNW 05:40:24 10° SSW visible
25 Nov ? 16:16:43 10° S 16:20:26 79° WSW 16:24:12 10° NNW visible
26 Nov ? 05:18:41 10° NNE 05:22:31 88° ESE 05:26:21 10° SSW visible
26 Nov ? 16:02:36 10° SSE 16:06:19 71° ENE 16:10:04 10° N visible
26 Nov ? 17:40:08 10° W 17:40:55 10° W 17:41:41 10° WNW visible
27 Nov ? 05:04:35 10° NNE 05:08:23 60° E 05:12:10 10° S visible
27 Nov ? 15:48:38 10° SSE 15:52:14 48° ENE 15:55:53 10° N visible
27 Nov ? 17:24:25 10° SW 17:26:38 15° W 17:28:51 10° NW visible
28 Nov ? 04:50:35 10° NNE 04:54:14 41° E 04:57:52 10° S visible
28 Nov ? 17:09:30 10° SW 17:12:23 21° W 17:15:17 10° NW visible
29 Nov ? 04:36:40 10° NNE 04:40:02 29° E 04:43:25 10° SSE visible
29 Nov ? 16:54:52 10° SSW 16:58:09 29° W 17:01:29 10° NNW visible
